Location: ??
(34.9170°N, 135.5016°E)
Time: 08:55:25
(UTC+00:00)

X-37B - Pass Details

Date: 30 January 2021
Orbit: 383 x 391 km, 45.0° (Epoch: 27 February)

Event Time Altitude Azimuth Distance (km) Brightness Sun altitude
Rises 09:46:29 0° 305° (NW) 2,273 5.2 -17.0°
Reaches altitude 10° 09:48:36 10° 311° (NW) 1,417 4.0 -17.4°
Enters shadow 09:51:36 48° 20° (NNE) 517 0.9 -18.0°
